Great Bend, KS

5:56 PM CDT on June 26, 2017 (GMT -0500)
Great Bend Municipal

Weather History for KGBD - June, 2013

Change the Weather History Date:

Wednesday, June 19, 2013

  Actual Average Record
Temperature  
Mean Temperature 76 °F -  
Max Temperature 86 °F 90 °F 106 °F (1974)
Min Temperature 66 °F 64 °F 49 °F (1976)
Cooling Degree Days 11    
Growing Degree Days 26 (Base 50)    
Moisture  
Dew Point 62 °F    
Average Humidity 64    
Maximum Humidity 88    
Minimum Humidity 43    
Precipitation  
Precipitation 0.19 in - - ()
Sea Level Pressure  
Sea Level Pressure 29.93 in    
Wind  
Wind Speed 13 mph (SSE)    
Max Wind Speed 24 mph    
Max Gust Speed 28 mph    
Visibility 10 miles    
Events      
Averages and records for this station are not official NWS values.
T = Trace of Precipitation, MM = Missing Value Source: NWS Daily Summary

Daily Weather History Graph

Daily Weather History Graph

Search for Another Location

Airport or City:

Trip Planner

Search our weather history database for the weather conditions in past years. The results will help you decide how hot, cold, wet, or windy it might be!

Date:

Astronomy

Jun. 19, 2013 Rise Set
Actual Time 6:11 AM CDT 9:02 PM CDT
Civil Twilight 5:40 AM CDT 9:33 PM CDT
Nautical Twilight 5:00 AM CDT 10:13 PM CDT
Astronomical Twilight 4:14 AM CDT 10:59 PM CDT
Moon 4:58 PM CDT (6/19) 2:54 AM CDT (6/19)
Length of Visible Light 15h 53m
Length of Day
14h 50m
Waxing Gibbous, 80% of the Moon is Illuminated
Jun 19
Waxing Gibbous
Jun 23
Full
Jun 29
Last Quarter
Jul 8
New
Jul 15
First Quarter

Hourly Weather History & Observations

Time (CDT) Temp. Heat Index Dew Point Humidity Pressure Visibility Wind Dir Wind Speed Gust Speed Precip Events Conditions
12:15 AM 66.2 °F - 60.8 °F 83% 29.98 in 10.0 mi SSE 10.4 mph - N/A   Clear
12:35 AM 66.2 °F - 60.8 °F 83% 29.99 in 10.0 mi SSE 8.1 mph - N/A   Clear
12:55 AM 66.2 °F - 59.0 °F 78% 30.00 in 10.0 mi SSE 11.5 mph - N/A   Clear
1:15 AM 66.2 °F - 59.0 °F 78% 30.00 in 10.0 mi South 11.5 mph - N/A   Clear
1:35 AM 66.2 °F - 60.8 °F 83% 29.99 in 10.0 mi South 12.7 mph - N/A   Clear
1:55 AM 66.2 °F - 60.8 °F 83% 29.99 in 10.0 mi South 11.5 mph - N/A   Clear
2:15 AM 66.2 °F - 60.8 °F 83% 29.98 in 10.0 mi SSE 11.5 mph - N/A   Clear
2:35 AM 66.2 °F - 60.8 °F 83% 29.98 in 10.0 mi South 12.7 mph - N/A   Clear
2:55 AM 68.0 °F - 60.8 °F 78% 29.97 in 10.0 mi South 12.7 mph - N/A   Clear
3:15 AM 68.0 °F - 60.8 °F 78% 29.97 in 10.0 mi South 11.5 mph - N/A   Clear
3:35 AM 68.0 °F - 60.8 °F 78% 29.96 in 10.0 mi South 13.8 mph - N/A   Clear
3:55 AM 68.0 °F - 62.6 °F 83% 29.96 in 10.0 mi South 12.7 mph - N/A   Clear
4:15 AM 68.0 °F - 62.6 °F 83% 29.96 in 10.0 mi South 10.4 mph - N/A   Clear
4:35 AM 68.0 °F - 62.6 °F 83% 29.97 in 10.0 mi South 11.5 mph - N/A   Clear
4:55 AM 66.2 °F - 60.8 °F 83% 29.96 in 10.0 mi South 9.2 mph - N/A   Clear
5:15 AM 66.2 °F - 62.6 °F 88% 29.97 in 10.0 mi South 10.4 mph - N/A   Clear
5:35 AM 66.2 °F - 62.6 °F 88% 29.98 in 10.0 mi South 8.1 mph - N/A   Clear
5:55 AM 66.2 °F - 62.6 °F 88% 29.96 in 10.0 mi South 8.1 mph - N/A   Clear
6:15 AM 66.2 °F - 60.8 °F 83% 29.97 in 10.0 mi SSW 6.9 mph - N/A   Clear
6:35 AM 66.2 °F - 60.8 °F 83% 29.97 in 10.0 mi South 8.1 mph - N/A   Clear
6:55 AM 66.2 °F - 62.6 °F 88% 29.96 in 10.0 mi SSE 8.1 mph - N/A   Clear
7:15 AM 66.2 °F - 62.6 °F 88% 29.96 in 10.0 mi ESE 8.1 mph - N/A   Clear
7:35 AM 66.2 °F - 62.6 °F 88% 29.96 in 10.0 mi ESE 8.1 mph - N/A   Clear
8:35 AM 69.8 °F - 62.6 °F 78% 29.98 in - South 5.8 mph - N/A   Unknown
8:55 AM 69.8 °F - 62.6 °F 78% 29.96 in 10.0 mi SSE 9.2 mph - N/A   Clear
9:15 AM 71.6 °F - 64.4 °F 78% 29.97 in 10.0 mi South 9.2 mph - N/A   Clear
9:35 AM 75.2 °F - 64.4 °F 69% 29.98 in 10.0 mi South 10.4 mph - N/A   Clear
9:55 AM 75.2 °F - 64.4 °F 69% 29.97 in 10.0 mi SSW 12.7 mph 17.3 mph N/A   Clear
10:15 AM 77.0 °F - 62.6 °F 61% 29.97 in 10.0 mi SSW 13.8 mph 17.3 mph N/A   Clear
10:35 AM 78.8 °F - 62.6 °F 57% 29.97 in 10.0 mi SSW 13.8 mph 19.6 mph N/A   Clear
10:55 AM 78.8 °F - 59.0 °F 51% 29.97 in 10.0 mi SSW 12.7 mph 19.6 mph N/A   Clear
11:15 AM 80.6 °F 81.5 °F 60.8 °F 51% 29.97 in 10.0 mi South 12.7 mph 25.3 mph N/A   Clear
11:35 AM 80.6 °F 81.5 °F 60.8 °F 51% 29.96 in 10.0 mi SSE 11.5 mph 19.6 mph N/A   Clear
11:55 AM 80.6 °F 81.5 °F 60.8 °F 51% 29.96 in 10.0 mi South 15.0 mph - N/A   Clear
12:15 PM 82.4 °F 82.9 °F 60.8 °F 48% 29.96 in 10.0 mi SE 6.9 mph 18.4 mph N/A   Clear
12:35 PM 82.4 °F 83.4 °F 62.6 °F 51% 29.95 in 10.0 mi SE 13.8 mph 20.7 mph N/A   Clear
12:55 PM 82.4 °F 82.9 °F 60.8 °F 48% 29.95 in 10.0 mi SSE 17.3 mph 20.7 mph N/A   Mostly Cloudy
1:15 PM 82.4 °F 82.9 °F 60.8 °F 48% 29.94 in 10.0 mi South 13.8 mph 23.0 mph N/A   Mostly Cloudy
1:35 PM 84.2 °F 85.0 °F 62.6 °F 48% 29.93 in 10.0 mi South 15.0 mph 23.0 mph N/A   Mostly Cloudy
1:55 PM 84.2 °F 84.4 °F 60.8 °F 45% 29.93 in 10.0 mi SSE 15.0 mph 21.9 mph N/A   Scattered Clouds
2:15 PM 84.2 °F 84.4 °F 60.8 °F 45% 29.92 in 10.0 mi South 16.1 mph 26.5 mph N/A   Partly Cloudy
2:35 PM 84.2 °F 84.4 °F 60.8 °F 45% 29.92 in 10.0 mi South 16.1 mph 25.3 mph N/A   Scattered Clouds
2:55 PM 86.0 °F 86.1 °F 60.8 °F 43% 29.91 in 10.0 mi South 17.3 mph 26.5 mph N/A   Mostly Cloudy
3:15 PM 86.0 °F 86.1 °F 60.8 °F 43% 29.91 in 10.0 mi South 18.4 mph 26.5 mph N/A   Mostly Cloudy
3:35 PM 86.0 °F 86.6 °F 62.6 °F 45% 29.90 in 10.0 mi SSE 20.7 mph 25.3 mph N/A   Mostly Cloudy
3:55 PM 84.2 °F 85.0 °F 62.6 °F 48% 29.90 in 10.0 mi SSE 19.6 mph - N/A   Mostly Cloudy
4:15 PM 84.2 °F 84.4 °F 60.8 °F 45% 29.90 in 10.0 mi SSE 15.0 mph 26.5 mph N/A   Mostly Cloudy
4:35 PM 84.2 °F 85.0 °F 62.6 °F 48% 29.89 in 10.0 mi SSE 20.7 mph 27.6 mph N/A   Scattered Clouds
4:55 PM 84.2 °F 85.0 °F 62.6 °F 48% 29.88 in 10.0 mi SSE 24.2 mph 27.6 mph N/A   Mostly Cloudy
5:15 PM 84.2 °F 84.4 °F 60.8 °F 45% 29.88 in 10.0 mi SSE 17.3 mph 24.2 mph N/A   Mostly Cloudy
5:35 PM 84.2 °F 84.4 °F 60.8 °F 45% 29.87 in 10.0 mi South 20.7 mph 25.3 mph N/A   Mostly Cloudy
5:55 PM 84.2 °F 84.4 °F 60.8 °F 45% 29.86 in 10.0 mi SSE 20.7 mph 24.2 mph N/A   Mostly Cloudy
6:15 PM 86.0 °F 86.1 °F 60.8 °F 43% 29.86 in 10.0 mi SSE 23.0 mph 26.5 mph N/A   Mostly Cloudy
6:35 PM 84.2 °F 84.4 °F 60.8 °F 45% 29.86 in 10.0 mi SSE 20.7 mph - N/A   Scattered Clouds
6:55 PM 84.2 °F 84.4 °F 60.8 °F 45% 29.86 in 10.0 mi South 19.6 mph 25.3 mph N/A   Partly Cloudy
7:15 PM 82.4 °F 82.9 °F 60.8 °F 48% 29.86 in 10.0 mi SSE 19.6 mph - N/A   Clear
7:35 PM 84.2 °F 85.0 °F 62.6 °F 48% 29.86 in 10.0 mi South 17.3 mph - N/A   Clear
7:55 PM 82.4 °F 83.4 °F 62.6 °F 51% 29.87 in 10.0 mi SSE 19.6 mph 27.6 mph N/A   Clear
8:15 PM 80.6 °F 81.8 °F 62.6 °F 54% 29.87 in 10.0 mi SSE 18.4 mph 24.2 mph N/A   Clear
8:35 PM 80.6 °F 81.8 °F 62.6 °F 54% 29.87 in 10.0 mi SSE 16.1 mph 20.7 mph N/A   Clear
8:55 PM 78.8 °F - 62.6 °F 57% 29.88 in 10.0 mi SSE 15.0 mph - N/A   Clear
9:15 PM 78.8 °F - 62.6 °F 57% 29.89 in 10.0 mi SSE 15.0 mph - N/A   Clear
9:35 PM 77.0 °F - 62.6 °F 61% 29.89 in 10.0 mi SSE 13.8 mph - N/A   Clear
9:55 PM 75.2 °F - 62.6 °F 65% 29.91 in 10.0 mi SSE 13.8 mph - N/A   Clear
10:15 PM 75.2 °F - 62.6 °F 65% 29.91 in 10.0 mi SSE 13.8 mph - N/A   Clear
10:35 PM 75.2 °F - 62.6 °F 65% 29.92 in 10.0 mi SSE 13.8 mph 19.6 mph N/A   Clear
10:55 PM 75.2 °F - 64.4 °F 69% 29.92 in 10.0 mi SSE 13.8 mph 19.6 mph N/A   Clear
11:15 PM 73.4 °F - 64.4 °F 73% 29.93 in 10.0 mi SSE 13.8 mph - N/A   Clear
11:35 PM 73.4 °F - 64.4 °F 73% 29.91 in 10.0 mi SSE 15.0 mph - N/A   Clear
11:55 PM 73.4 °F - 64.4 °F 73% 29.91 in 10.0 mi SSE 15.0 mph - N/A   Clear